KIRKWALL AIRPORT current weather conditions

sailwx.info

Wind from 260 at 13 knots

Air temperature 6.0° C
Visibility: greater than 5.4 NM
Dewpoint 4.0° C

Last reported at 2015-Jan-25 22:20 UTC.
Time now 2015-Jan-26 00:21 UTC

Location: N 58°57' W 002°54'.
View on Google Maps.

See reports from other nearby stations

  
Tides and Currents Weather Stations Pressure Air Temp Water Temp Dewpoint Dewpoint Depression Visibility Wind Speed Wind Dir Waves Ship Positions
date/time (UTC)wind fromknots sea level pressurealtimeterstation pressurevisibilityair tempwater tempwave heightnotes
2015-Jan-25 23:20 250 14 5.4 7.0
2015-Jan-25 22:50 250 12 5.4 6.0
2015-Jan-25 22:20 260 13 5.4 6.0
2015-Jan-25 21:50 260 14 5.4 7.0
2015-Jan-25 21:20 260 18 4.3 7.0 Light drizzle.
2015-Jan-25 20:50 270 16 5.4 7.0
2015-Jan-25 20:20 270 20 5.4 8.0
2015-Jan-25 19:50 260 18 gusting 27 5.4 8.0
2015-Jan-25 19:20 250 16 5.4 8.0 Showers in the vicinity.
2015-Jan-25 18:50 250 14 5.4 8.0 Showers in the vicinity.
2015-Jan-25 18:20 240 14 5.4 8.0 Showers in the vicinity.
2015-Jan-25 17:50 250 14 5.4 8.0 Showers in the vicinity.
2015-Jan-25 17:20 260 18 4.3 8.0 Light rain.
2015-Jan-25 16:50 220 14 3.2 9.0 Rain showers.
2015-Jan-25 16:20 210 14 5.4 9.0 Showers in the vicinity.
2015-Jan-25 15:50 220 15 5.410.0 Light rain showers.
2015-Jan-25 15:20 210 18 5.410.0
2015-Jan-25 14:50 220 20 5.410.0
2015-Jan-25 14:20 200 18 5.4 8.0 Showers in the vicinity.
2015-Jan-25 13:50 200 20 5.4 8.0 Showers in the vicinity.
2015-Jan-25 13:20 190 18 5.4 9.0 Showers in the vicinity.
2015-Jan-25 12:50 190 14 5.4 9.0 Showers in the vicinity.
2015-Jan-25 12:20 170 11 5.4 8.0 Showers in the vicinity.
2015-Jan-25 11:50 160 13 5.4 8.0 Showers in the vicinity.
2015-Jan-25 11:20 180 15 5.4 8.0 Showers in the vicinity.
2015-Jan-25 10:50 200 18 5.4 8.0 Showers in the vicinity.
2015-Jan-25 10:20 210 20 5.4 8.0 Showers in the vicinity.
2015-Jan-25 09:50 210 20 5.4 8.0 Showers in the vicinity.
2015-Jan-25 09:20 210 19 5.4 8.0 Showers in the vicinity.
2015-Jan-25 08:50 210 17 5.4 7.0 Showers in the vicinity.
2015-Jan-25 08:20 210 16 5.4 7.0 Showers in the vicinity.
2015-Jan-25 07:50 210 18 5.4 8.0 Showers in the vicinity.
2015-Jan-25 07:20 220 17 5.4 8.0
2015-Jan-25 06:50 210 17 5.4 7.0
2015-Jan-25 06:20 210 16 5.4 7.0
2015-Jan-25 05:50 200 16 5.4 7.0
2015-Jan-25 05:20 200 18 5.4 7.0
2015-Jan-25 04:50 200 18 5.4 6.0
2015-Jan-25 04:20 190 15 5.4 6.0 Light drizzle.
2015-Jan-25 03:50 190 14 3.8 6.0 Drizzle.
2015-Jan-25 03:20 190 14 3.8 6.0
2015-Jan-25 02:50 190 14 3.2 5.0 Light drizzle.
2015-Jan-25 02:20 200 14 3.8 5.0 Light drizzle.
2015-Jan-25 01:50 210 13 3.8 6.0
2015-Jan-25 01:20 210 13 3.8 6.0
2015-Jan-25 00:50 220 12 5.4 6.0
2015-Jan-25 00:20 220 12 5.4 5.0
2015-Jan-24 23:50 220 11 3.8 6.0
2015-Jan-24 23:20 240 9 3.8 6.0 Light drizzle.
2015-Jan-24 22:50 260 12 5.4 6.0 Drizzle.
2015-Jan-24 22:20 260 10 5.4 6.0 Drizzle.
2015-Jan-24 21:50 270 14 5.4 6.0 Drizzle.
2015-Jan-24 21:20 260 12 5.4 6.0
2015-Jan-24 20:50 270 12 5.4 6.0
2015-Jan-24 20:20 270 9 5.4 5.0
2015-Jan-24 19:50 270 7 5.4 5.0
2015-Jan-24 19:20 270 9 5.4 5.0
2015-Jan-24 18:50 280 14 5.4 5.0
2015-Jan-24 18:20 280 18 5.4 6.0
2015-Jan-24 17:50 270 13 5.4 5.0
2015-Jan-24 17:20 270 8 5.4 3.0
2015-Jan-24 16:50 290 16 gusting 36 3.8 4.0 Rain.
2015-Jan-24 16:20 290 14 gusting 35 5.4 4.0 Rain showers.
2015-Jan-24 15:50 280 17 5.4 4.0 Showers in the vicinity.
2015-Jan-24 15:20 270 9 5.4 5.0 Showers in the vicinity.
2015-Jan-24 14:50 280 13 5.4 4.0 Showers in the vicinity.
2015-Jan-24 14:20 280 18 5.4 4.0 Showers in the vicinity.
2015-Jan-24 13:50 280 9 5.4 4.0 Showers in the vicinity.
2015-Jan-24 13:20 300 12 5.4 3.0 Showers in the vicinity.
2015-Jan-24 12:50 270 16 5.4 5.0 Rain showers.
2015-Jan-24 12:20 280 15 5.4 4.0 Showers in the vicinity.
2015-Jan-24 11:50 290 15 5.4 3.0 Showers in the vicinity.
2015-Jan-24 11:20 290 26 gusting 36 2.7 2.0 Snow showers.
2015-Jan-24 10:50 280 15 5.4 3.0 Showers in the vicinity.
2015-Jan-24 10:20 290 16 5.4 3.0 Showers in the vicinity.
2015-Jan-24 09:50 280 19 gusting 33 5.4 3.0 Showers in the vicinity.
2015-Jan-24 09:20 280 23 5.4 2.0 Showers in the vicinity.
2015-Jan-24 08:50 290 17 5.4 3.0 Showers in the vicinity.
2015-Jan-24 08:20 300 16 5.4 2.0 Showers in the vicinity.
2015-Jan-24 07:50 280 16 5.4 2.0 Showers in the vicinity.
2015-Jan-24 07:20 290 27 3.2 1.0 Light snow showers.
2015-Jan-24 06:50 310 26 5.4 2.0 Small hail/snow pellets showers.
2015-Jan-24 06:20 280 16 5.4 3.0 Showers in the vicinity.
2015-Jan-24 05:50 280 20 gusting 31 1.8 1.0 Haze.
2015-Jan-24 05:20 280 17 5.4 3.0
2015-Jan-24 04:50 290 15 5.4 2.0
2015-Jan-24 04:20 290 16 gusting 30 4.9 2.0 Drizzle.
2015-Jan-24 03:50 280 22 2.3 2.0 Drizzle.
2015-Jan-24 03:20 260 15 5.4 3.0
2015-Jan-24 02:50 280 19 gusting 31 5.4 3.0
2015-Jan-24 02:20 260 14 5.4 4.0
2015-Jan-24 01:50 270 15 5.4 3.0
2015-Jan-24 01:20 250 9 5.4 2.0
2015-Jan-24 00:50 280 15 3.2 3.0 Light rain.
2015-Jan-24 00:20 300 15 3.2 3.0 Drizzle.